Home Rules Search Enroll Grooms Brides Divorcee Success Stories Response Magazine Photo Edit
 
Grooms
 
If you want contact details of matching profiles, please submit these registration numbers through RESPONSE option along with your registration number and registered email address.
 
Reg.No Reg-Dt Height Birth-Dt Education Residence Occupation
             
 
MB44205 01/07/15 5.08 31/10/85 BDS PUNE DENTAL CLINIC PUNE/40000/-PM
MB44204 01/07/15 5.09 15/01/85 MBBS, MD(PSYCHIATRIST) CHANDRAPUR DOCTOR MUMBAI/3 LAC+ PA
MB44203 01/07/15 5.07 20/04/82 BE(ELECT) (PURSUING SECTION B), AMIE, DIP.ELECTRICAL ENGG., DOUBLE DIP. ELECTRICAL POWER SYSTEMS MUMBAI SR DESIGN ENGINEER MUMBAI/7.5 LAC PA
MB44202 01/07/15 5.07 02/04/86 B.TECH E&TC KOLHAPUR SENIOR ENGINEER MUMBAI/850000 PA
MB44201 01/07/15 5.09 01/11/87 M.C.S. PUNE JOB PUNE/6.5 LA PA
MB44200 01/07/15 5.07 29/10/87 MBA FINANCE SAP A.NAGAR SENIOR SOFTWARE ENGINEER MUMBAI/70000 PM
MB44199 01/07/15 5.08 09/08/88 B.PHARMACY NASHIK OWN MEDICAL STORES NASHIK/--
MB44198 01/07/15 5.11 15/07/88 B SC PUNE INDIAN ARMY PUNE/5 LAKHS PA
MB44197 01/07/15 5.11 00/00/00 B.A MUMBAI WORKING AS A DIRECTOR IN MARATHI FILMS MUMBAI/1000000 PA
MB44196 01/07/15 5.07 09/11/84 BE CIVIL, MBA CONSTRUCTION MANAGEMENT SATARA SERVICE MUMBAI/5-7 LAKH PA
MB44195 01/07/15 5.06 19/11/87 MS(UK), BE (MECHANICAL) PUNE TESTING ENGINEER PUNE/8.80 L PA
MB44194 01/07/15 5.06 08/07/86 BE IT,PGDAC MUMBAI SENIOR SOFTWARE ENGINEER MUMBAI/80000 PM
MB44193 01/07/15 5.04 02/10/87 MCA AURANGABAD ASSISTANT MANAGER (IT)- AURANGABAD/4 LACS PA
MB44192 30/06/15 5.05 22/12/86 M.TECH(THERMAL), BE(MECH) KOLHAPUR ENGINEER AT EBARA CORPORATION JAPAN/21 LAKH RS PA
MB44191 30/06/15 5.09 10/11/86 BSC,MCA AURANGABAD SENIOR PROGRAMMING SME PUNE/5.2 LAKH PA
MB44190 30/06/15 5.07 13/09/87 M.SC- STATISTICS(I.I.T. POWAI) MUMBAI SR. QUANT RESEARCHER IN RISK MANAGMENT MUMBAI/12,00,000 PA
MB44189 30/06/15 5.09 06/02/88 DIP. E&TC, BBA ,MASTER TO CONTUNUE PUNE BUSINESS - TWO BIGGEST MULTIBRAND WATCH SHOWROOM ,1 IT COMPANY IN PCMC PUNE/950000-1000000 PA
MB44188 30/06/15 5.08 20/05/87 B.TECH IN E & TC THANE BUSINESS THANE/60000 PM
MB44187 30/06/15 5.08 25/03/84 B.SC. IN HOSPITALITY MGT JALGAON SERVICE PUNE/300000 PA
MB44186 30/06/15 5.07 30/08/87 DOCTOR PUNE CLINIC PUNE/400000 PA
MB44185 30/06/15 5.10 10/06/87 BE(COMP), MBA(MKTG) A.NAGAR SALES EXECUTIVE PUNE/4.5 LAC PA
MB44184 30/06/15 5.09 22/05/87 BCS PUNE OWN HOTEL IN PUNE/50000/-PM
MB44183 30/06/15 5.07 22/04/84 BA(ENGLISH) SANGLI CASHIER PUNE/17000/-PM
MB44182 30/06/15 5.10 14/02/85 MBBS, MS(MOL.SCIENCE & NANOTECH) USA SOLAPUR HEALTH CARE PROFESSIONAL AT BANGALORE /50000/-PM
MB44181 30/06/15 5.08 23/03/90 BACHELOR OF ARTS PUNE CIVIL CONSTRUCTIONS PUNE/1,00,000/- PM
MB44180 30/06/15 5.07 20/03/83 MCA PUNE SERVICE IN S/W COMPANY PUNE/80000 PM
MB44179 29/06/15 5.05 06/06/88 BCOM PUNE SERVICE IN BANK PUNE/26000/-
MB44178 29/06/15 5.08 07/07/85 DIPLOMA IN HOSPITALITY PANVEL BUSINESS PANVEL/30000 TO 40000 PM
MB44177 29/06/15 5.11 09/06/88 BE E&TC PUNE S/W ENGINEER MNC PUNE/10 LACS PA
MB44176 29/06/15 5.09 08/09/85 MBA (MARKETING) MUMBAI GROUP PRODUCT MANAGER MUMBAI/18 LACS PA
MB44175 28/06/15 6.03 25/09/89 BE(AUTOMOBILE), M.TECH(MECH) KARAD SERVICE IN PUNE/5 LAC PA
MB44174 28/06/15 5.11 03/09/84 BE(COMP), C-DAC RAIGAD SERVICE IN PUNE/9.25 LAC PA
MB44172 28/06/15 5.08 05/12/87 BCOM KOLHAPUR BUSINESS(TRANSPORT CONTRACTOR) KOLHAPUR/8 LAC PA
MB44171 28/06/15 5.07 28/10/73 BCOM SATARA BUSINESS SATARA/5 LAC PA
MB44170 28/06/15 5.04 17/03/84 BAMS , MD SOLAPUR OWN HOSPITAL AT SOLAPUR/100000 PM
MB44169 27/06/15 5.10 15/07/85 BE(E&TC) KOLHAPUR VODAFONE SHARED SERVICES LTD PUNE/7.5 LAC PA
MB44168 27/06/15 5.03 08/10/84 MCA PUNE SR.S/W ENGG IN ACCENTURE PUNE/
MB44167 27/06/15 5.11 01/01/84 M.SC.(LIFE SCIENCE), M.ED. MBA (HR), M.PHIL. (HRM), GDC&A, PH.D. (PURSUING) A.NAGAR CEO NASHIK/7 LAC PA
MB44166 27/06/15 5.07 31/08/88 B.E COMPUTER PUNE SERVICE IN S/W COMPANY PUNE/650000 PA
MB44165 27/06/15 5.09 11/04/85 BE E&C , CRISIL CERTIFIED BELGAUM WORKING AT CRISIL MUMBAI/730000 PA
MB44164 27/06/15 5.07 04/10/89 BLS, LLB THANE JR.ADVOCATE IN HIGH COURT MUMBAI/--
MB44163 27/06/15 5.08 24/09/84 MCA PUNE S/W PVT. PUNE/5.8 LAC PA
MB44162 27/06/15 5.10 19/12/88 BE(IT) PUNE SR.S/W ENGINEER IN PUNE/65000/-PM
MB44161 27/06/15 5.02 11/02/90 B.TECH(MECH) SOLAPUR SERVICE MANAGER SOLAPUR/2 LAC PA
MB44160 26/06/15 5.10 22/12/87 MBBS, MD IN PSM(MUMBAI) PUNE /
MB44159 26/06/15 5.09 10/07/85 MARINE ENGG AURANGABAD 2ND ENGG IN MERCHANT NAVY /8000 USD PM
MB44158 26/06/15 5.08 13/10/85 M.E (MECHANICAL-HEAT POWER ENGG)) A.NAGAR ASST. PROF. PUNE/5.5 L PA
MB44157 26/06/15 5.09 19/11/85 ITI ELECTRICIAN COURSE PUNE SERVICE IN AUTOMOBILES PUNE/5 LAC PA
MB44156 26/06/15 5.10 08/06/84 BSC, IATA, MBA MUMBAI SERVICE IN MUMBAI/--
MB44155 26/06/15 5.07 19/06/84 M.TECH(COMP) VJTI PUNE S/W ENGINEER PUNE/10.25 LAC PA
MB44154 26/06/15 5.10 22/07/88 MBBS, M.S.Orthopaedics-RESIDENT (ADMISSION-2O14) SOLAPUR RESIDENT IN MIMER,TALEGAON DABHADE,PUNE./Rs42000/ PM
MB44153 26/06/15 6.00 22/12/86 Bsc ICWA KOLHAPUR SERVICE KOLHAPUR/20000 PM
MB44152 25/06/15 5.09 17/04/87 MBBS.DGO MUMBAI JOB IN HOSPITAL MUMBAI/600000 PA
MB44151 25/06/15 5.11 01/03/86 MBBS, MD PEDIATRICIAN AMRAVATI SENIOR REGISTAR, WADIA HOSPITAL, MUMBAI/ PM
MB44150 25/06/15 5.02 05/01/85 M.COM., D.T.L., MBA (FINANCE) PUNE SERVING AS EXECUTIVE FINANCE PUNE/4 TO 5 LAKH PA
MB44149 25/06/15 5.06 05/06/87 BE(MECH) SOLAPUR QA ENGINEER PUNE/4.4 LAC PA
MB44148 25/06/15 5.07 15/10/86 BCOM MUMBAI CONSULTANT IN MUNICIPAL CORPORATION MUMBAI/20000/-PM
MB44147 25/06/15 5.09 21/10/87 DIP.MECH.ENGG PUNE SERVICE IN TATA MOTORS PUNE/40000+50000/-PM
MB44146 25/06/15 5.08 06/07/87 BE(IT) PUNE SERVICE IN TCS PUNE/10.3 LAC PA
MB44145 25/06/15 5.08 03/12/84 B. PHARM PUNE BUSINESS PUNE/40000 PM
MB44144 25/06/15 5.06 02/07/81 DCE(CIVIL), GDPM, PGDCM THANE CONSTRUCTION BUSINESS CONSULTING(COMPANY REGISTERED IN GOVT.OF INDIA) MUMBAI/4 TO 5 LAC PA
MB44143 24/06/15 5.10 05/03/87 BE (COMP) PUNE SOFTWARE ENGINEER+ OWN BUSINESS PUNE/70000 PM
MB44142 24/06/15 5.06 09/03/86 BE(E&TC) PREPARING FOR UPSC EXAM PUNE ASST.MANAGER IN KBL GROUP PUNE/
MB44141 24/06/15 5.10 01/08/89 BCOM, NIIT COMP.COURSE MUMBAI SERVICE IN MUMBAI/25000/-PM
MB44140 24/06/15 5.06 20/11/85 B.TECH (CHEMICAL) PUNE SERVICE PUNE/51000 PM
MB44139 24/06/15 5.08 19/11/85 B.A.,CCNA, MCSE(COMP.H/W & NETWORKING DIP), MCSE A.NAGAR SERVICE A.NAGAR/29000 PM
MB44138 24/06/15 5.08 14/06/87 MS (USA); MBA(PUNE) BE(COMP) AURANGABAD TECH.MANAGER USA/5 LAKH PM
MB44137 24/06/15 5.08 10/06/88 ANIMATION DIPLOMA KOLHAPUR SENIOR ANIMATOR HYDERABAD/900000 PA
MB44136 24/06/15 5.11 28/12/86 B.E (I.T) MUMBAI SERVICE MUMBAI/41000 PM
MB44135 23/06/15 5.09 23/04/83 BE VIT PUNE - DISTINCTION DHULE AST VICE PRESIDENT IN MNC (SINGAPORE BRANCH)/50 LAC PA
MB44134 23/06/15 5.07 03/06/85 PHD AGRICULTURE KOLHAPUR CLASS II CENTRAL GOVERNMENT EMPLOYEE KOLHAPUR/340000 PA
MB44133 23/06/15 5.08 25/03/84 MBBS DNB MEDICINE PARBHANI DOCTOR MUMBAI/50000 PM
MB44132 23/06/15 5.06 01/08/85 BACHELORS IN HOTEL MANAGEMENT PUNE RESTAURANT MANAGER PUNE/4.5 LAKHS PA
MB44130 23/06/15 5.11 19/01/87 B TECH RAIGAD S/W ENGINEER IN MNC PUNE (having New Zealand residency)./8.5 LAC PA
MB44129 23/06/15 5.04 18/10/86 B-PHARMA PUNE SERVICE - CENTAUR PHARMA SR. OFFICER PUNE/3,75000/- PA
MB44128 23/06/15 5.08 09/04/84 BE(COMP.SCI) THANE SERVICE MUMBAI/45000/-PM
MB44127 23/06/15 5.09 05/12/86 B.M.M IN ADVERTISING,GNIIT,PURSUING MMM MUMBAI SR. SOCIAL MEDIA EXECUTIVE,DIGITAL MARKETING,ASUS INDIA,MUMBAI /35000/- PM
MB44126 22/06/15 5.05 09/05/83 BCOM MUMBAI SERVICE IN MUMBAI/5 LAC PA
MB44125 22/06/15 5.07 11/12/82 BE(COMP) PUNE SERVICE IN S/W COMPANY PUNE/1 LAC+ PM
MB44124 22/06/15 5.07 26/06/86 BE(COMP) PUNE ENGINEER PUNE/12 LAC PA
MB44123 22/06/15 5.07 08/07/83 GRADUATE FROM CANADA SINDHUDURG CHIEF OPERATOR CANADA/200000 PM
MB44122 22/06/15 5.11 08/07/87 LLM,DCL KOLHAPUR BUSINESS KOLHAPUR/150000 PM
MB44121 22/06/15 6.00 12/08/86 MS, USA PUNE ENGINEER USA/
MB44120 22/06/15 5.08 24/04/87 BA PUNE CENTRAL RAILWAY LONAWALA/25000/- PM
MB44119 22/06/15 5.05 21/02/86 MBBS, MD MEDICINE BIDAR SENIOR RESIDENT IN JIPMER PONDICHERRY / PM
MB44118 22/06/15 5.07 24/10/80 B.E THANE IT PROFESSIONAL- VICE PRESIDENT AT UK BANK /2.3 LAC PER MONTH
MB44117 21/06/15 5.06 21/09/87 BE WITH E & TC MUMBAI SOFTWARE ENGINEER MUMBAI/550000 PA
MB44116 21/06/15 5.07 02/07/86 MSc.Tech. PUNE SOFTWARE ENGINEER PUNE/675000 PA
MB44115 21/06/15 5.06 14/06/86 BE(ELECTRICAL) PUNE SERVICE IN MNC AS A ASST.MANAGER PUNE/11.9 LAC PA
MB44114 21/06/15 5.07 11/11/86 BE(CIVIL), ME(STRUCT) PUNE PARTNERSHIP FIRM, GOVT.CONTRACTOR, CONSULTANT, DEVELOPERS/40000/+PM
MB44113 21/06/15 5.11 12/12/84 MSC, SAS, MBA PUNE S/W PROFESSIONAL IN COGNIZANT PUNE/12 LAC PA
MB44112 21/06/15 5.04 23/06/85 BCOM, ITI FITTER SANGLI SERVICE PUNE/32000/-PM
MB44111 20/06/15 5.11 16/03/88 MCS PUNE SERVICE IN MNC PUNE/28000/-PM
MB44110 20/06/15 5.06 27/07/88 BE AND MBA INDORE SALES EXECUTIVE IN MULTINATIONAL COMPANY BANGALORE/6 LAC PA
MB44109 20/06/15 5.08 28/02/85 MSC(PHY.CHEM), B.ED AURANGABAD GOVT.SERVICE AURANGABAD/35000/+PM
MB44108 20/06/15 5.05 30/08/76 D.E.T.E., SCADA-PLC PROG. PUNE BUSINESS PUNE/5 LAC PA
MB44107 20/06/15 5.11 09/12/85 BBA/SPEC INDUSTRIAL EQUIPMENTS BELGAUM BUSINESSMAN BELGAUM/200000 PM
MB44106 20/06/15 5.11 05/07/84 MBA(MKTG), BSC(PHY) PUNE MARKETING EXECUTIVE PUNE/2.4 LAC PA
MB44105 20/06/15 5.06 14/10/87 PG IN MULTIMEDIA PUNE GRAPHIC DESIGNER/2.4 LAC PA
MB44104 20/06/15 5.07 23/07/87 BE(E&TC) PUNE SERVICE PUNE/7.3 LAC PA
MB44103 20/06/15 5.08 19/11/86 BE(ELECTRONICS) , MBA (MARKETING) ,LLB MUMBAI BUSINESS ANALYST MUMBAI/360000 PA
MB44102 20/06/15 5.05 25/05/85 BE followed by MS (Computers) BANGALORE Data Scientist bangalore/25 LAC PA
MB44101 20/06/15 5.11 26/11/84 B COM , MBA AURANGABAD BUSINESS AURANGABAD/1000000 PA
MB44100 20/06/15 6.00 16/05/88 BE(COMPUTER) SANGLI SOFTWARE ENGINEER PUNE/5 LAKHS PA
MB44099 19/06/15 5.10 25/08/88 M.COM, DTL, GDC&A PARBHANI TAX CONSULTANT PARBHANI/600000 PA
MB44098 19/06/15 5.08 14/01/86 BDS SANGLI DENTAL CLINIC/400000/-per annum
MB44097 19/06/15 5.09 24/02/86 B.E. Computers PUNE Private Sector (IT) service in Pune/ /10.25 Lakh PA
MB44096 19/06/15 5.08 23/03/86 D.PHARM PUNE MEDICAL SHOP PUNE/1.5 LAC PM
MB44095 19/06/15 5.09 15/08/87 ME CIVIL SOLAPUR ASST.PROFESSOR PUNE/ PM
MB44094 19/06/15 5.06 10/01/87 B.SC., PGDM PUNE MANUFACTURING BUSINESS PUNE/15 LAC PA +
MB44093 19/06/15 5.09 10/08/84 D.E.E SATARA SATARA SATARA/21000/-PM
MB44092 19/06/15 5.08 25/07/89 MBBS DMRD A.NAGAR PRACTICE/ PM
MB44091 19/06/15 5.06 12/09/86 BE MECH & ME APPEAR BEED WORKING IN JAYaHIND INDUSTRIES LTD. PUNE/25000 PM
MB44090 19/06/15 5.05 24/09/87 BCA,MCA NANDED SOFTWARE ENGINEER MUMBAI/7 LAC PA
MB44089 19/06/15 5.08 25/05/86 MTECH ELECTRONICS TELECOM) AMRAVATI BUSINESS / PM
MB44088 19/06/15 5.10 12/05/87 BAMS MUMBAI SERVICE IN RESERVE BANK OF INDIA MUMBAI/3.6 LAKH PA
MB44087 19/06/15 5.06 30/03/83 M.SC. (ELECTRONICS & TELECOM) PUNE SOFTWARE ENGINEER IN PUNE./16 LACS PA
MB44086 19/06/15 5.10 19/10/83 B.E., MBA PUNE MANAGER IN REPUTED US MNC PUNE/ABOVE RS. 100000 PM
MB44085 18/06/15 5.10 29/09/85 B.COM, B.H.M.C.T BULDANA MANAGER-OPERATIONS,VENKYS INDIA PVT.LIMITED PUNE/JOB + AGRI. 8 LAC PA
MB44084 18/06/15 5.11 17/09/88 BCOM SATARA MILK DAIRY+ TRACTOR(AGRI LAND)/--
MB44083 18/06/15 5.04 08/07/86 BCA , B.COM MUMBAI SERVICE, BUS CONDUCTOR,PMPML, PUNE /20000 PM
MB44082 18/06/15 5.11 02/08/86 BMS, MMS(MKTG) NAVI MUMBAI ASST.MANAGER NAVI MUMBAI/2.75 LAC PA
MB44081 18/06/15 5.07 10/10/87 BSC COMP.SCI.,(BCS) PUNE SERVICE PUNE/30000/-PM
MB44080 18/06/15 5.08 05/05/80 MCS, SAP, CONVENT PUNE TEAM LEADER IN PUNE/11 LAC PA
MB44078 18/06/15 5.08 26/11/86 M.TECH POWER SYSTEM MUMBAI DESIGN ENGINEER MUMBAI/8 LAC PA
MB44077 17/06/15 5.08 10/12/80 BCOM, MBA SOLAPUR SERVICE IN PUNE/35000/-
MB44076 17/06/15 5.07 16/01/87 BE IN ELECTRONICS MUMBAI SERVICE IN IT MUMBAI/900000 PA
MB44075 17/06/15 5.06 07/04/86 MBBS, D.ORTHO A.NAGAR CONSULTING ORTHO SURGEON REPUTED HOSPITAL PUNE/75000/- PM
MB44074 17/06/15 5.08 05/07/84 BA (ECO) NASHIK Essgee engineer maintenance Supervisor (Ceat ltd nashik & mumbai) /22000 PM
MB44073 17/06/15 5.05 03/09/85 MPM HR PUNE SERVICE IN PUNE CORPORATION/
MB44072 17/06/15 5.08 19/08/87 M.TECH, CAM/CAM PUNE SERVICE PUNE/50000/-PM
MB44071 17/06/15 5.06 07/02/86 B.E. INSTRUMENTAION NAVI MUMBAI SALARIED EMPLOYEE NAVI MUMBAI/750000 PA
MB44070 17/06/15 5.08 01/10/84 BE(E&TC), MBA(FINANCE) CONVENT, PUNE UNIVERSITY PUNE BRANCH MANAGER IN FEDERAL BANK /8.5 LAC PA
MB44069 17/06/15 5.09 05/05/88 MCM PUNE Infosys-hinjewadi(pune) /25000/-PM
MB44068 16/06/15 5.09 01/05/83 MS(ELECTRONICS ENGG) USA, BE(INSTRU) COEP A.NAGAR S/W ENGINEER PUNE/12 LAC PA
MB44067 16/06/15 5.09 19/01/83 B.E. COMPUTER MUMBAI SERVICE MUMBAI/100,000 PM
MB44066 16/06/15 5.07 23/07/83 B.E(MECH)+PGDBA (OPERATIONAL MANAGEMENT) PUNE MANAGER IN MNC COMPANY PUNE/11.1 LAC PA
MB44065 16/06/15 5.08 19/12/86 B.E. IN COMPUTER ENGG. (MUMBAI UNIVERSITY), MBA (IT) FIRST YEAR NAVI MUMBAI SOFTWARE PROFESSIONAL (SERVICE) NAVI MUMBAI/75000 PM
MB44064 16/06/15 5.11 15/04/83 C.A. MUMBAI MANAGER A/C IN HOUSING FINANCE CO MUMBAI/50000+ PM
MB44063 16/06/15 5.06 16/05/87 MBA KOLHAPUR SERVICE HYDERABAD/35000 PM
MB44062 15/06/15 5.07 23/11/86 GRADUATE AMRAVATI BUSINESS AMRAVATI/ PM
MB44061 15/06/15 5.09 31/01/85 B.PHARM, MBA(OPERATIONS) MUMBAI OFFICER IN PHARMA INDUSTRY MUMBAI/5.5 LAC PA
MB44060 15/06/15 5.10 18/09/83 B.D.S SOLAPUR DENTIST /60000 PM
MB44059 15/06/15 5.09 29/08/87 BE MECHANICAL PUNE DESIGN ENGINEER PUNE/5.2 LACK PA
MB44058 15/06/15 5.05 16/06/86 BSL L.L.B. PUNE ADVOCATE /35000/- PM
MB44057 15/06/15 5.03 31/05/80 DIPLOMA IN CIVIL.GOVERNMENT COLLEGE PUNE PUNE SERVICE / 500000 PA
MB44056 15/06/15 5.09 02/08/85 ITI,FYBA,SUPERVISOR LICENCE SATARA BUSINESS + AGRILAND SATARA/35000 + PM
MB44055 15/06/15 5.06 07/07/87 BE COMPUTER SCIENCE PUNE SOFTWARE ENGINEER AUSTRALIA/50000
MB44054 15/06/15 5.08 23/12/81 BE PARBHANI SNR.SOFTWARE ENGINEER BANGALORE/24 LAKHS PA
MB44053 15/06/15 5.11 20/06/89 MBBS M.S.(GEN.SURGERY) II YEAR LATUR DOCTOR AURANGABAD/ PM
MB44052 15/06/15 5.06 22/04/82 MA GEOGRAPHY PUNE SERVICE IN ENG COLLEGE PUNE/16000 PM
MB44051 15/06/15 6.00 14/04/86 BE(COMP) PUNE S/W ENGINEER PUNE/60000/-PM
MB44050 14/06/15 5.07 17/12/87 MCA LATUR S/W ENGINEER IN PUNE/3.5 LAC PA
MB44049 14/06/15 5.10 27/09/85 M.PHARMCY DHULE SR.DRUG SAFETY ASSOCIATE AT BANGALORE(JOINING PUNE/MUMBAI MID 2015)/7 LAC PA
MB44048 14/06/15 5.07 25/01/88 BE MECHANICAL PUNE PROJECT ENGINEER PUNE/5,00,000 PA
MB44047 14/06/15 5.04 28/05/89 BCS, MBA PUNE L&T INFOTECH PUNE/--
MB44046 14/06/15 5.07 22/07/87 MBBS-DGO(CPS) PUNE DOCTOR /50000 PM
MB44045 14/06/15 5.07 19/06/87 BE INFORMATION TECHNOLOGY PUNE WORKING IN A PRIVATE FIRM PUNE/780000 PA
MB44044 14/06/15 5.07 11/11/88 MSC(COMP) NAVI MUMBAI S/W DEVELOPER PUNE/
MB44043 14/06/15 5.10 03/09/85 BE(MECH) A.NAGAR SERVICE PUNE/--
MB44042 14/06/15 5.08 04/01/87 M.PHARM PUNE Working onsite/4000 CHF
MB44041 14/06/15 5.08 07/09/88 BE(COMP), MBA(PROJECT MGMT) PUNE S/W ENGINEER PUNE/60000/-PM
MB44040 14/06/15 5.07 21/04/87 MSC(ORG.CHEM)CLASS II OFFICER MUMBAI PUNE CLASS II OFFICER MUMBAI/5 LAC+ PA
MB44039 14/06/15 5.06 14/09/88 BE(E&TC) MUMBAI SERVICE PUNE/6.5 LAC PA
MB44038 14/06/15 5.11 26/02/74 BE(ELECTRONICS), JAPANESE BUSINESS CULTURE & LANGUAGE EDUCATION(JAPAN), MBA((STRATEGY & INTERNATIONAL BUSINESS)JAPAN PUNE SERVICE IN MNC (HEWLEPTT-PACKARD) JAPAN/5.5 LAC PM
MB44037 13/06/15 5.04 05/08/89 B. TECH. (IIT KHARAGPUR), M. TECH (IIT KHARAGPUR) PUNE CONSULTANT PUNE/9 LAC PA
MB44036 13/06/15 5.08 27/02/89 BE(IT) OSMANABAD S/W DEVELOPER PUNE/5.25 LAC PA
MB44035 13/06/15 5.08 07/08/90 BE(MECH), MS(USA) MUMBAI SERVICE IN USA/$62000 PA
MB44034 13/06/15 5.08 03/02/86 B.E. COMPUTER PUNE SERVICE PUNE/50,000 PM
MB44033 13/06/15 5.08 17/06/86 B.E. INSTRUMENTATION & CONTROL PUNE PROJECT MANAGER IN REPUTED MNC PUNE/1350000 PA
MB44032 13/06/15 5.08 25/09/83 BE SATARA SOFTWARE / IT SERVICE (3.5 years onsite at Dusseldorf, Germany) /7 LAC PA
MB44031 13/06/15 5.08 24/09/88 MCA HINGOLI S/W ENGINEER PUNE/5 LAC PA
MB44030 13/06/15 5.07 12/11/87 B.SC.(HMCT), MBA (HR), MUMBAI UNIVERSITY THANE SERVICE MANAGER IN PRIVATE SECTOR /7 LAKH+ PA
MB44029 13/06/15 5.09 01/06/85 MSC(AGRI) PUNE SERVICE AKOLA/4 LAC PA
MB44028 13/06/15 5.08 08/11/83 MBA, MCOM, ADVANCED DIPLOMA AURANGABAD SELF EMPLOYED IN PUNE/12 TO 15 LAC PA
MB44027 13/06/15 5.08 23/07/86 MCOM PUNE SERVICE IN PUNE/3 LAC PA
MB44026 13/06/15 5.06 28/06/84 MBBS, D.ORTHO, MS(ORTHO) SANGLI DOING MS(ORTHO) GOVT.MEDICAL COLLEGE, NANDED/--
MB44025 13/06/15 5.04 15/03/86 BE(MECH) SATARA ASSISTANT MANAGER PUNE/10LAC PA
MB44024 13/06/15 5.09 15/12/88 ME(MECH)DESIGN SATARA SERVICE SATARA/4.5 LAC PA
MB44023 12/06/15 5.11 26/01/85 DIP.ARCHITECT, ANIMATION COURSE PUNE KAIZEN STUDIO PUNE/20000/-PM
MB44022 12/06/15 5.07 14/12/84 CA, CWA PUNE SERVICE PUNE/70000 PM
MB44021 12/06/15 5.09 12/07/86 MSC AGRI A.NAGAR NAIB TAHSILDAR RAIGAD/
MB44020 12/06/15 5.08 19/04/85 MBBS DTCD BULDANA DOCTOR WASHIM/70 THOUSANDS PM
MB44019 12/06/15 5.11 17/06/87 MD RADIO DIGNOSIS A.NAGAR DOCTOR / PM
MB44018 12/06/15 5.09 04/11/88 D.PHARM PARBHANI MEDICAL SHOP AT JAMKHED A.NAGAR/30,000 PM
MB44017 12/06/15 6.02 20/10/84 DBA (DIP IN BUSINESS ADMINISTRATION) PUNE OWN FAMOUS FAMILY VEG RESTAURANT IN PUNE/--
MB44016 12/06/15 5.09 09/01/83 BSC(CHEM), CCNA,CCNP, REDHAT, LINUX6 MUMBAI LEAD TECHNICAL PUNE/35000/-PM
MB44015 12/06/15 6.00 15/07/87 TRAVEL TOURISM DIPLOMA, MBA PUNE SERVICE PUNE/35000/-+PM
MB44014 11/06/15 5.07 03/03/87 B-TECH(MECH), COEP PUNE SATARA ENGINEER(PETROFAC LTD.) MUMBAI/10 LAKH PA
MB44013 11/06/15 5.07 01/03/85 M-Tech from IIT (Mech / Machine Design) PUNE SR. ENGINEER PUNE/1000000 PA
MB44012 11/06/15 6.00 24/07/82 BE COMPUTER NAVI MUMBAI PRO LEAD, (NOW IN USA) PUNE/ PM
MB44011 11/06/15 5.09 21/02/83 BA PUNE HEAD CONSTABLE, SRPF, PUNE/
MB44010 11/06/15 5.05 28/02/86 DOING PHD(USA) PUNE USA/1.5 LAC PM
MB44009 11/06/15 6.01 30/09/86 BSC(INDUST CHEM), MCM PUNE Server & network administrator at Epicomm technology Pune /4.8 LAC PA
MB44008 11/06/15 5.05 11/05/88 BSC(CHEM), PGDMLM SOLAPUR SERVICE PUNE/5 LAC PA
MB44007 11/06/15 5.06 21/06/87 BE ELECTRONICS THANE SERVICE THANE/9.3 LAC PA
MB44006 10/06/15 5.07 08/12/86 PH.D(APPEAR), M.SC(ORG. CHEM), NET, D.PHARM A.NAGAR RESEARCH SCHOLAR MUMBAI/--
MB44005 10/06/15 5.09 04/10/86 BE PRODUCTION PUNE JOB-DESIGN ENG L&T BARODA/4.5 LAC PA
MB44004 10/06/15 5.11 01/01/88 MBBS SANGLI DOCTOR, PREPARING FOR POST GRADUATION CET SANGLI/50,000 PM
MB44003 10/06/15 5.05 11/08/86 MSC AGRI SOLAPUR CENTRAL GOVT EMP /600000 PA
MB44002 10/06/15 5.08 25/10/85 MBBS, MS ENT PUNE DOCTOR PUNE/
MB44001 10/06/15 5.07 03/07/86 B.F.A APPLIED ARTS(12+4), DOING M.F.A APPLIED ARTS A.NAGAR ART DIRECTOR IN ADVERTISING AGENCY/ MUMBAI/520000 PA
MB44000 10/06/15 6.02 16/08/85 MCA.BCA AMRAVATI U WIN TECHNOLOGIES.PVT.LMTD PUNE/400000 PA
MB43999 10/06/15 5.10 02/12/87 M TECH(COMP) KOLHAPUR ASSISTANT PROFESSOR + OWN S/W CONSULTANCY PUNE/
MB43998 10/06/15 5.08 01/10/87 Msc(Electronics (Instrumentation) SOLAPUR Instrumentation Engg. Thermal power plant(Cogeneration) Akluj/
MB43997 10/06/15 5.05 26/06/83 MCS PUNE SERVICE IN GEOAMS PUNE/11 LAC PA
MB43996 10/06/15 5.09 24/09/84 MA+FITNESS EXPERT PUNE SERVICE+BUSINESS PUNE/
MB43995 10/06/15 5.07 06/04/89 MBBS , DOING DNB(NUCLEAR MEDICINE) AT CHENNAI SANGLI DOING DNB/--
MB43994 10/06/15 5.04 26/09/87 B.E MECHANICAL KOLHAPUR DEVELOPMENT ENGINEER PUNE/25000 PM
MB43993 09/06/15 5.09 24/01/87 BAMS SOLAPUR DOCTOR / PM
MB43992 09/06/15 5.09 25/08/87 BE CSE PUNE PROJECT LEAD, IT PUNE/13.65 LACS PA
MB43991 09/06/15 5.09 14/02/88 BCOM PUNE OWN GALA IN MARKET YARD,PUNE+INDUSTRIAL GODOWN/
MB43990 09/06/15 5.07 26/11/87 BE(MARINE) PUNE MARINE ENGINEER WITH MAERSK/
MB43988 09/06/15 5.10 25/09/85 MBA PUNE BUSINESS PUNE/12 LACKS PA
MB43987 09/06/15 5.06 06/09/87 M.A,D.ED OSMANABAD TEACHER OSMANABAD/27000 PM
MB43986 09/06/15 5.10 21/04/86 BDS SANGLI DENTAL SURGEON MEDICAL OFFICER SANGLI/70000 PM
MB43985 09/06/15 6.00 16/10/88 BE COMPUTER SCIENCE PUNE SOFTWARE ENGINEER /5,80000 PA
MB43984 09/06/15 5.09 05/01/85 BSC SATARA ARMY DELHI/40000/-PM
MB43983 09/06/15 6.03 16/06/88 MS(USA) PUNE SERVICE USA/--
MB43982 09/06/15 5.07 13/05/85 B.E IN ELECTRONICS & COMMUNICATION AHMEDABAD SOFTWARE ENGG. IN MNC AHMEDABAD/700000 PA
MB43981 09/06/15 6.00 03/10/88 MBBS J.J. Hospital,pursuing DNB Medicine 3rd yr Mumbai AURANGABAD DOCTOR MUMBAI/ PM
MB43980 09/06/15 5.08 02/01/82 BA MUMBAI SALES OFFICER MUMBAI/500000 PA
MB43979 09/06/15 5.09 08/02/86 BE (Mech) MS (Industrial Engineering) NANDED Quality Engineer, Ts Tech North America, USA/$60000 PA (Visiting India in August 2015) /
MB43978 09/06/15 5.07 29/10/87 Bachelor of Fine Arts(BFA)- Pune C-DAC- Diploma in Advance Computer Arts- Pune PUNE GRAPHIC DESIGNER PUNE/40000/-PM
MB43977 08/06/15 5.06 26/10/87 B.S.(UNIVERSITY OF CALIFORNIA BARCLEY NASHIK SELF EMPLOYED PUNE/1 LAC PM
MB43976 08/06/15 5.11 07/12/84 BE MECHANICAL THANE SERVICE PUNE/50000 PM
MB43975 08/06/15 5.10 21/01/86 BACHELOR OF ARTS PUNE BUSINESS PUNE/ PM
MB43974 08/06/15 5.04 14/11/84 DEE, B.TECH APPEAR PUNE SERVICE IN MNC PUNE/4.5 LACS PA
MB43973 08/06/15 5.08 15/11/85 B.E. (ELECTRONICS) KOLHAPUR Service at Santelequip pvt ltd Pune/5 LAC PA
MB43972 08/06/15 5.11 23/08/86 M.S (IT) MUMBAI PROGRAMMING MANAGER UK/2500000 PA
MB43971 07/06/15 5.06 20/03/86 MSC(CHEM) KOLHAPUR SERVICE IN PHARMA COMPANY PUNE/4 TO 5 LAC PA
MB43970 07/06/15 5.09 10/05/82 BAMS, PGDEMS A.NAGAR SALES TAX INSPECTOR KOLHAPUR/--
MB43969 07/06/15 5.07 19/09/88 M.TECH MECHANICAL SANGLI ASSISTANT PROFESSOR KOLHAPUR/20000 PM
MB43968 07/06/15 5.11 15/02/81 BE(CIVIL)DISTINCTION PUNE GOVT.SERVICE MUNCIPAL CORPORATION/60000/-PM
MB43967 07/06/15 5.06 26/05/86 MBA(HR), HOTEL MGMT PUNE SERVICE IN PUNE/30000/-PM
MB43966 07/06/15 5.08 21/01/87 BE(COMP.SCI) KOLHAPUR S/W ENGINEER MNC IN PUNE/
MB43965 07/06/15 5.10 11/08/80 DIP.CIVIL ENGG. PUNE SERVICE IN PUNE/7.75 LAC PA
MB43964 07/06/15 5.09 12/12/88 BE(MECH) PUNE SERVICE PUNE/--
MB43963 07/06/15 5.07 01/01/86 B.COM, PURSUING ICWAI BELGAUM FINANCIAL ANALYST PUNE/5 LAKHS PA
MB43962 07/06/15 5.08 18/06/82 BCOM PUNE REAL ESTATE CONSULTANT/--
MB43961 07/06/15 5.04 25/03/85 M.E. (STRUCTURES), B.TECH. PUNE DESIGN ENGINEER PUNE/6.6 LAC PA
MB43960 07/06/15 5.07 29/01/86 BE(ELECTRICAL) A.NAGAR ASST. ENGINEER MSEB A.NAGAR /45000 PM
MB43959 07/06/15 5.11 21/02/88 INTERIOR DECORATION & DESIGNING PUNE BUSINESS IN INTERIOR & LANDSCAPE/--
MB43958 07/06/15 5.07 18/04/87 MSC, PHD(FRUIT SCI) OSMANABAD DOING PHD/
MB43957 07/06/15 5.05 30/08/87 B.TECH(IT), MBA PUNE SERVICE IN COGNIZANT PUNE/5 LAC PA
MB43956 07/06/15 5.04 13/05/84 BCOM, PGD IN IT ENGG. PUNE QATAR AIRWAYS-TECHNICAL ENGG/18 LAC PA
MB43955 07/06/15 5.09 21/06/87 DME, BE(PROD) PUNE SERVICE IN S.V.MODULAR CONVEYORS PVT.LTD.PUNE/
MB43954 06/06/15 5.10 20/05/85 BHMS NAVI MUMBAI SR.MEDICAL WRITTER DRUG SAFETY & RISK MGMT/755000 PA
MB43953 06/06/15 5.07 19/10/84 BE(IT) PUNE SOFTWARE ENGINEER PUNE/7.50 LAC PA
MB43952 06/06/15 5.09 12/06/85 MCA PUNE SR.S/W ENGINEER PUNE/40000/-PM
MB43951 06/06/15 5.07 09/05/84 B.A. , RHCE, MCSA (COMP. H&N) DIPLOMA PUNE SERVICE IN IT COMPANY PUNE/40000 PM
MB43950 06/06/15 5.09 01/02/85 MCA PUNE SOFTWARE ENGINEER PUNE/7.7 LAC PA
MB43949 06/06/15 5.11 12/10/74 MSC(PHYSICS), B.ED, S/W DIP PUNE TEACHER IN ARMY PUBLIC SCHOOL PUNE/30000/-PM
MB43948 06/06/15 5.06 11/03/88 MBA MARKETING & INTERNATIONAL BUSINESS MUMBAI MARKETING & SALES MUMBAI/750000 PA
MB43947 06/06/15 5.07 13/12/84 MSC - BIO-CHEMISTRY PUNE SR. RESARCH ASSOC, (R & D ), PHARMA MUMBAI/6,00,000 PA
MB43946 06/06/15 5.05 05/02/84 ME (STRUCTURES) SOLAPUR PROFESSOR SOLAPUR/50000 PM
MB43945 05/06/15 5.03 29/02/88 BSC, DMLT PUNE BUSINESS OWN PATHOLOGY LAB & BLOOD BANK STORAGE CENTRE/7.2 LAC PA
MB43944 05/06/15 6.00 16/09/84 MSC BED D-PHARM PARBHANI FARMING,BUSINESS PARBHANI/50000 PM
MB43943 05/06/15 5.04 30/10/84 DCE, BE(CIVIL), ME(STRUCT) LATUR DESIGN ENGINEER/5 LAC PA
MB43942 05/06/15 6.01 29/07/87 M.PHARM SANGLI SUN PHARMA BARODA/4 LAC PA
MB43941 05/06/15 5.05 06/06/84 D.M.E. B.E.(PRODUCTION.) M TECH (ENERGY TECH) KOLHAPUR JUNIOR ENGG.AT NAVI MUMBAI MUNICIPAL CORPORATION (GOVT CLASS II OFFICER)/600000 PA
MB43940 05/06/15 5.07 13/10/88 BHMS, PGDEMS (RUBY), MBA (HR) AURANGABAD OWN HOSPITAL AURANGABAD/ PM
MB43939 05/06/15 5.08 07/02/84 MBA(CANADA) THANE Senior Manager./49 LAC PA
MB43938 05/06/15 5.11 28/09/89 BSC(COMP.SCI), BA(ECO), DMLT PUNE SERVICE PUNE/35000/-PM
MB43937 05/06/15 5.09 22/05/87 BE(MECH) PUNE S/W ENGINEER MNC PUNE/7.1 LAC PA
MB43936 04/06/15 5.07 02/05/86 MD(PANCHKARM), BAMS PUNE OWN CLINIC & ASST.PROFESSOR PUNE/--
MB43935 04/06/15 6.00 28/09/87 B.TECH PUNE SENIOR ASSOCIATE IN MNC PUNE/60000 PM
MB43934 04/06/15 5.08 18/07/86 BE(Mech), MS(Machine Design), IIT Madras SANGLI R&D ENGINEER (MAHINDRA & MAHINDRA) CHENNAI/7.3 LACKS PA
MB43933 04/06/15 5.08 05/09/87 B.E. COMPUTER NAVI MUMBAI SERVICE NAVI MUMBAI/10,00,000 + BONUS PA
MB43932 04/06/15 6.00 31/05/88 M.C.A. PUNE SOFTWARE ENGINEER PUNE/650000 PA
MB43931 04/06/15 5.09 24/08/86 BE(E&TC) MUMBAI SERVICE MUMBAI/36000 PM
MB43930 04/06/15 5.10 26/05/88 MBA MARKETING PUNE SERVICE PUNE/ PM
MB43929 03/06/15 5.05 17/06/86 MBBS, MD peads, Pediatric Cardiology (FNB NBE) LATUR PEDIATRICIAN PUNE/ PM
MB43928 03/06/15 5.06 07/04/87 B.E.MECHANICAL, DME SATARA SERVICE PUNE/60000 PM
MB43927 03/06/15 5.07 19/09/86 HOTEL MANAGEMENT AND B.A PUNE SERVICE CANADA/1500000 PA
MB43926 03/06/15 5.09 16/10/85 MBBS, MS (GENERAL SURGERY) ASPIRING SUPERSPECIALITY (MCH) DHULE / PM
MB43925 03/06/15 5.06 12/08/88 B.PHARM PUNE COGNIZANT PUNE/30000/-PM
MB43924 03/06/15 5.09 12/01/87 B.E.MECH,M.E.DESIGN PURSUINNG BEED DESIGN ENGINEER IN MNC PUNE/500000 PA
MB43923 03/06/15 5.07 21/08/87 MSC (AGRI) PUNE GOVT SERVICE (PSI) SATARA/ PM
MB43922 03/06/15 5.07 26/03/84 BCOM MUMBAI SR.WORKFORCE MANAGER MUMBAI/11 LAC PA
MB43921 03/06/15 5.05 10/08/76 B.E.(COMP) WITH DISTINCTION SOLAPUR Software Enginer-in MNC at Bangalore and USA(Recently deputed to consulting group of the company ,at company HQ in Chicago US,for current one yr)/25 LACS PA
MB43920 03/06/15 5.03 07/02/79 BE(MECH), ME(CAD CAM) PUNE SERVICE PUNE/30000/-PM
MB43919 03/06/15 5.08 08/11/87 B.TECH (AGRI.ENGG) A.NAGAR EXTENTION OFFICER( AGRI.) Z.P. NASHIK/34000 PM
MB43918 03/06/15 5.08 20/05/88 BACHELOR OF COMPUTER ENGINEERING PUNE SERVICE PUNE/625000 PA
MB43917 03/06/15 5.10 09/04/88 B.E MECHANICAL PUNE PROJECT & APPLICATION ENGINEER PUNE/4.25 LAKHS PA
MB43916 03/06/15 5.06 13/07/84 BE(PROD)COEP, EXE MBA SIBM SOLAPUR Assistant Manager Pune/50000/-PM
MB43915 03/06/15 5.11 12/07/86 BSC (HORTI) KARAD BUSINESS KARAD/ PM
MB43914 02/06/15 5.07 02/06/85 B.E.MECHANICAL SATARA JOB, RELIANCE INDUSTRIES LTD. NAVI MUMBAI/CTC 10 LAC PA
MB43913 02/06/15 5.08 27/03/87 MBBS (PREPARING FOR PG) A.NAGAR MEDICAL OFFICER(MKCL) A.NAGAR/50000 PM
MB43912 02/06/15 5.06 27/06/85 MBBS, SUPER SPECIALTY MUMBAI DOING SUPERFICIALITY BANGALORE/35000 PM
MB43911 02/06/15 5.08 04/06/91 BBA KOLHAPUR BUSINESS KOLHAPUR/ PM
MB43910 02/06/15 5.11 22/11/87 BE ENTC PUNE UNIVERSITY PUNE SENIOR SOFTWARE ENGINEER AT PUNE/1000000 PA
MB43909 02/06/15 5.05 17/05/87 BE (E & TC) A.NAGAR BUSINESS FAMILY BUSINESS, MIDC, AHMEDNAGAR/12 LACS PA
MB43908 02/06/15 5.09 16/02/89 B.TECH COMPUTER SCIENCE AURANGABAD SR. SOFTWARE ENGINEER PUNE/500000 PA
MB43907 02/06/15 5.10 17/04/85 B.E (COMP SCI) FROM VIT, PUNE PUNE TEAM LEAD , ACCENTURE PUNE/16.5L PA
MB43906 02/06/15 5.06 24/11/84 DIP.IN COMP ENGG. PUNE TATA COMMUNICATION PUNE/4.7 LAC PA
MB43905 02/06/15 5.11 25/05/86 MCS PUNE SERVICE PUNE/30000/-PM
MB43904 02/06/15 5.06 01/04/81 M.A.(GEO) , NET, M.PHIL.,MBA , BED A.NAGAR PROFESSOR A.NAGAR/30000 PM
MB43903 02/06/15 5.10 20/06/85 MDS IN PROSTHODONTICS LATUR SELF EMPLOYEED LATUR/10-12 LAKHS PA
MB43902 02/06/15 5.05 14/04/85 MBA, JALGAON SR. ENGINEER NAVI MUMBAI/540000 PA
 
    page 1 of 13
 
Home | Rules | Search | Enroll | Grooms | Brides | Divorcee | Response | Magazine | Success Stories | Contact Us